Regional Weather Roundup
Issued by NWS

Home | Current Version | Previous Version | Graphics & Text | Print | Product List | Glossary On
Versions: 1 2 3 4 5 6 7 8 9 10 11 12 13 14 15 16 17 18 19 20 21 22 23 24 25 26 27 28 29 30 31 32 33 34 35 36 37 38 39 40 41 42 43 44 45 46 47 48 49 50
000
ASUS43 KLSX 242107
RWRMO

WEATHER SUMMARY FOR MISSOURI
NATIONAL WEATHER SERVICE SPRINGFIELD MO
400 PM CDT THU APR 24 2014

NOTE: "FAIR" INDICATES FEW OR NO CLOUDS BELOW 12,000 FEET WITH NO
       SIGNIFICANT WEATHER AND/OR OBSTRUCTIONS TO VISIBILITY.
       CURRENT SKY AND/OR WEATHER CONDITIONS ARE NOT AVAILABLE FOR
       CHILLICOTHE AND FARMINGTON.

MOZ001>031-035>038-043-044-053-054-242200-
...NORTHERN AND WESTERN MISSOURI...

CITY           SKY/WX    TMP DP  RH WIND       PRES   REMARKS
KANSAS CTY INT CLOUDY    58  52  80 NW17G25   29.68R
KANSAS C DTWN  CLOUDY    60  52  74 N13       29.69R
LEE`S SUMMIT   CLOUDY    56  52  86 NW12      29.68R
ST JOSEPH      CLOUDY    56  49  77 N16G31    29.68R
CHILLICOTHE      N/A     56  53  90 N10       29.63S
KIRKSVILLE     LGT RAIN  55  55 100 S7        29.62F FOG

$$
MOZ066>068-077>081-088>096-101>105-242200-
...SOUTHWEST MISSOURI...

CITY           SKY/WX    TMP DP  RH WIND       PRES   REMARKS
SPRINGFIELD    PTSUNNY   68  62  81 S21       29.63F
JOPLIN         LGT RAIN  60  58  92 W21       29.65R

$$
MOZ032>034-039>042-045>050-055>058-069>072-242200-
...CENTRAL MISSOURI...

CITY           SKY/WX    TMP DP  RH WIND       PRES   REMARKS
COLUMBIA       LGT RAIN  63  52  67 W33G63    29.68R SQUALL
JEFFERSON CITY HVY RAIN  66  54  65 W31G56    29.68R SQUALL
ROLLA          CLOUDY    74  52  46 S16G24    29.62F
SEDALIA        LGT RAIN  59  56  89 N8        29.61F FOG
WHITEMAN AFB   DRIZZLE   58  52  81 W3        29.60F
OSAGE BEACH    CLOUDY    57  52  82 NW13G24   29.69R

$$
MOZ051-052-059>065-242200-
...EAST CENTRAL MISSOURI...

CITY           SKY/WX    TMP DP  RH WIND       PRES   REMARKS
ST LOUIS INTL  PTSUNNY   79  47  32 S17G23    29.62F
SPIRIT OF STL  PTSUNNY   77  49  37 S12G18    29.61F
ST CHARLES     PTSUNNY   78  48  34 S20G25    29.61F

$$
MOZ072>076-082>087-097>100-106>115-242200-
...SOUTH CENTRAL AND SOUTHEAST MISSOURI...

CITY           SKY/WX    TMP DP  RH WIND       PRES   REMARKS
CAPE GIRARDEAU PTSUNNY   78  53  41 S18G25    29.70F
FARMINGTON     CLOUDY    75  52  43 S16G25    29.68F
POPLAR BLUFF   CLOUDY    78  54  43 S18G30    29.65F
WEST PLAINS    CLOUDY    73  53  49 S12G23    29.69F

$$



USA.gov is the U.S. government's official web portal to all federal, state and local government web resources and services.